This demonstration page uses our WeatherBlox Daily Observations layout. Learn more.

Left ArrowRight Arrow

Hourly Observations for September 24, 2021

Temp ( °F °C ) Dew Point ( °F °C ) Humidity (%) Winds ( mph kmh ) Pressure ( in mb ) Visibility ( mi km ) Precip ( " mm )
12:53 am 00:53 Clear 63 17.2 44 6.7 50 50 S 6 9 29.85 1011 10 16 0.00 0.00
1:53 am 01:53 Clear 62 16.7 45 7.2 54 54 SSW 7 11 29.83 1010 10 16 0.00 0.00
2:53 am 02:53 Clear 57 13.9 46 7.8 67 67 Calm 29.83 1010 10 16 0.00 0.00
3:53 am 03:53 Clear 57 13.9 47 8.3 69 69 SSW 3 6 29.83 1010 10 16 0.00 0.00
4:53 am 04:53 Clear 59 15 47 8.3 64 64 WSW 5 7 29.83 1010 10 16 0.00 0.00
5:53 am 05:53 Clear 58 14.4 50 10 75 75 WNW 9 15 29.86 1011 10 16 0.00 0.00
6:53 am 06:53 Clear 60 15.6 50 10 70 70 N 14 22 29.88 1012 10 16 0.00 0.00
7:53 am 07:53 Sunny 61 16.1 50 10 67 67 NNW 13 20 29.92 1013 10 16 0.00 0.00
8:53 am 08:53 Sunny 64 17.8 49 9.4 58 58 N 18 30 29.97 1015 10 16 0.00 0.00
9:53 am 09:53 Sunny 65 18.3 49 9.4 56 56 N 16 26 30.01 1016 10 16 0.00 0.00
10:53 am 10:53 Sunny 66 18.9 48 8.9 52 52 N 16 26 30.02 1017 10 16 0.00 0.00
11:53 am 11:53 Partly Cloudy 67 19.4 48 8.9 51 51 N 17 28 30.03 1017 10 16 0.00 0.00
12:53 pm 12:53 Mostly Sunny 67 19.4 49 9.4 53 53 N 14 22 30.08 1019 10 16 0.00 0.00
1:53 pm 13:53 Mostly Sunny 67 19.4 49 9.4 53 53 N 14 22 30.06 1018 10 16 0.00 0.00
2:53 pm 14:53 Sunny 66 18.9 48 8.9 52 52 NNE 14 22 30.08 1019 10 16 0.00 0.00
3:53 pm 15:53 Partly Cloudy 64 17.8 48 8.9 56 56 N 12 19 30.10 1019 10 16 0.00 0.00
4:53 pm 16:53 Mostly Cloudy 63 17.2 48 8.9 58 58 NNW 10 17 30.11 1020 10 16 0.00 0.00
5:53 pm 17:53 Sunny 64 17.8 50 10 60 60 NW 6 9 30.12 1020 10 16 0.00 0.00
6:53 pm 18:53 Sunny 64 17.8 48 8.9 56 56 NNW 6 9 30.12 1020 10 16 0.00 0.00
7:53 pm 19:53 Clear 59 15 48 8.9 67 67 WSW 5 7 30.12 1020 10 16 0.00 0.00
8:53 pm 20:53 Clear 56 13.3 48 8.9 75 75 undefined N/A 30.14 1021 10 16 0.00 0.00
9:53 pm 21:53 Clear 53 11.7 48 8.9 83 83 WSW 7 11 30.15 1021 10 16 0.00 0.00
10:53 pm 22:53 Clear 50 10 46 7.8 86 86 Calm 30.16 1021 10 16 0.00 0.00
11:53 pm 23:53 Clear 49 9.4 46 7.8 90 90 Calm 30.16 1021 10 16 0.00 0.00

Powered by AerisWeather